Satellite: SO-50
Catalog number: 27607
Epoch time:      12251.89398949
Element set:    0859
Inclination:      064.5575 deg
RA of node:       043.2868 deg
Eccentricity:    0.0077941
Arg of perigee:   231.9194 deg
Mean anomaly:     127.4872 deg
Mean motion:   14.72495429 rev/day
Decay rate:      1.283e-05 rev/day^2
Epoch rev:           52214
Checksum:              354

Satellite: CO-55
Catalog number: 27844
Epoch time:      12251.58344623
Element set:    0458
Inclination:      098.7046 deg
RA of node:       258.7716 deg
Eccentricity:    0.0009818
Arg of perigee:   351.6605 deg
Mean anomaly:     008.4416 deg
Mean motion:   14.21066613 rev/day
Decay rate:       2.68e-06 rev/day^2
Epoch rev:           47659
Checksum:              330

Satellite: CO-57
Catalog number: 27848
Epoch time:      12252.02417530
Element set:    0409
Inclination:      098.7131 deg
RA of node:       258.5776 deg
Eccentricity:    0.0009665
Arg of perigee:   355.8515 deg
Mean anomaly:     004.2587 deg
Mean motion:   14.20813322 rev/day
Decay rate:       2.49e-06 rev/day^2
Epoch rev:           47659
Checksum:              323

Satellite: AO-51
Catalog number: 28375
Epoch time:      12252.89225843
Element set:     360
Inclination:      098.1568 deg
RA of node:       214.3173 deg
Eccentricity:    0.0083525
Arg of perigee:   146.7741 deg
Mean anomaly:     213.8789 deg
Mean motion:   14.40981424 rev/day
Decay rate:       1.03e-06 rev/day^2
Epoch rev:           43082
Checksum:              310

Satellite: CP3
Catalog number: 31129
Epoch time:      12251.57363735
Element set:    0259
Inclination:      097.8841 deg
RA of node:       254.5141 deg
Eccentricity:    0.0100035
Arg of perigee:   226.5485 deg
Mean anomaly:     132.7345 deg
Mean motion:   14.53194506 rev/day
Decay rate:       6.35e-06 rev/day^2
Epoch rev:           28594
Checksum:              299

Satellite: CO-65
Catalog number: 32785
Epoch time:      12253.17551712
Element set:     410
Inclination:      097.7896 deg
RA of node:       312.2108 deg
Eccentricity:    0.0015683
Arg of perigee:   143.2077 deg
Mean anomaly:     217.0249 deg
Mean motion:   14.83170954 rev/day
Decay rate:      1.489e-05 rev/day^2
Epoch rev:           23621
Checksum:              305

Satellite: PRISM
Catalog number: 33493
Epoch time:      12252.25827197
Element set:    0052
Inclination:      098.1818 deg
RA of node:       034.8742 deg
Eccentricity:    0.0019207
Arg of perigee:   030.9315 deg
Mean anomaly:     329.3025 deg
Mean motion:   14.84284027 rev/day
Decay rate:      4.483e-05 rev/day^2
Epoch rev:           19607
Checksum:              299

Satellite: SOHLA-1
Catalog number: 33496
Epoch time:      12252.89615183
Element set:    0845
Inclination:      098.1112 deg
RA of node:       004.1118 deg
Eccentricity:    0.0007183
Arg of perigee:   127.5553 deg
Mean anomaly:     232.6299 deg
Mean motion:   14.70037539 rev/day
Decay rate:       7.37e-06 rev/day^2
Epoch rev:           19454
Checksum:              302

Satellite: SO-67
Catalog number: 35870
Epoch time:      12253.48771727
Element set:     310
Inclination:      097.2255 deg
RA of node:       286.2722 deg
Eccentricity:    0.0001074
Arg of perigee:   173.6001 deg
Mean anomaly:     321.8608 deg
Mean motion:   15.24466481 rev/day
Decay rate:      6.421e-05 rev/day^2
Epoch rev:           16545
Checksum:              297

Satellite: TISAT-1
Catalog number: 36799
Epoch time:      12253.46266561
Element set:     329
Inclination:      098.0566 deg
RA of node:       330.4021 deg
Eccentricity:    0.0013451
Arg of perigee:   258.7413 deg
Mean anomaly:     101.2286 deg
Mean motion:   14.82223737 rev/day
Decay rate:      2.992e-05 rev/day^2
Epoch rev:           11697
Checksum:              303

Satellite: STUDSAT
Catalog number: 36801
Epoch time:      12252.91303087
Element set:    0493
Inclination:      098.0651 deg
RA of node:       330.9645 deg
Eccentricity:    0.0011099
Arg of perigee:   244.9111 deg
Mean anomaly:     115.0953 deg
Mean motion:   14.85050287 rev/day
Decay rate:      8.074e-05 rev/day^2
Epoch rev:           11694
Checksum:              290

Satellite: FO-69
Catalog number: 37227
Epoch time:      12252.27038377
Element set:    0279
Inclination:      071.9692 deg
RA of node:       128.6131 deg
Eccentricity:    0.0017021
Arg of perigee:   170.9164 deg
Mean anomaly:     189.2291 deg
Mean motion:   14.77160508 rev/day
Decay rate:       9.43e-06 rev/day^2
Epoch rev:           04836
Checksum:              316

Satellite: FO-70
Catalog number: 37380
Epoch time:      12252.28996895
Element set:    0283
Inclination:      071.9733 deg
RA of node:       129.2355 deg
Eccentricity:    0.0017579
Arg of perigee:   167.8935 deg
Mean anomaly:     192.2653 deg
Mean motion:   14.76911609 rev/day
Decay rate:       9.32e-06 rev/day^2
Epoch rev:           04825
Checksum:              349

Satellite: ALMASAT-1
Catalog number: 38078
Epoch time:      12252.09177345
Element set:    0548
Inclination:      069.4825 deg
RA of node:       129.1306 deg
Eccentricity:    0.0746431
Arg of perigee:   144.9588 deg
Mean anomaly:     220.3015 deg
Mean motion:   14.11853200 rev/day
Decay rate:     2.6509e-04 rev/day^2
Epoch rev:           02924
Checksum:              297

